User: anonymous   Login
Location: Unspecified
(0.0000°N, 0.0000°E)
Time: 20:55:28
(UTC+01:00)
Language:

Hubble Space Telescope - Orbit

View from above orbital plane
View from above orbital plane
View from above satellite
View from above satellite

Ground track
Ground track

The orbit data is extracted from the following two-line orbital elements,

1 20580U 90037B   18055.69204564  .00000512  00000-0  20472-4 0  9996
2 20580  28.4693 138.7338 0002814  15.0972 118.2141 15.08985087328463
Epoch (UTC): 24 February 2018 16:36:32
Eccentricity: 0.0002814
inclination: 28.4693°
perigee height: 537 km
apogee height: 541 km
right ascension of ascending node: 138.7338°
argument of perigee: 15.0972°
revolutions per day: 15.08985087
mean anomaly at epoch: 118.2141°
orbit number at epoch: 32846

The dashed part of the orbit path shows where the satellite is in the earth's shadow,  

DLR